Location: Trenton
(45.6167°N, 62.6167°W)
Time: 05:47:42
(UTC+00:00)

Nauka - Pass Details

Date: 02 October 2021
Orbit: 417 x 423 km, 51.6° (Epoch: 26 October)

Event Time Altitude Azimuth Distance (km) Brightness Sun altitude
Rises 00:32:06 0° 292° (WNW) 2,367 ? -28.4°
Reaches altitude 10° 00:34:24 10° 280° (W) 1,500 ? -28.7°
Enters shadow 00:35:17 16° 270° (W) 1,209 ? -28.9°
